Location: A�t �Alizem
(31.2076°N, 8.7872°W)
Time: 21:41:03
(UTC+00:00)

N. Korean satellite - Pass Details

Date: 25 September 2021
Orbit: 450 x 495 km, 97.3° (Epoch: 23 October)

Event Time Altitude Azimuth Distance (km) Brightness Sun altitude
Rises 05:09:28 0° 26° (NNE) 2,532 10.7 -17.0°
Reaches altitude 10° 05:11:47 10° 40° (NE) 1,658 10.0 -16.5°
Maximum altitude 05:14:47 25° 97° (E) 1,008 9.0 -15.8°
Drops below altitude 10° 05:17:48 10° 154° (SSE) 1,668 9.5 -15.2°
Sets 05:20:07 0° 168° (SSE) 2,551 10.3 -14.7°
